TimeEST,TemperatureF,Dew PointF,Humidity,Sea Level PressureIn,VisibilityMPH,Wind Direction,Wind SpeedMPH,Gust SpeedMPH,PrecipitationIn,Events,Conditions,WindDirDegrees,DateUTC
12:55 AM,37.9,27.5,66,29.94,10.0,NW,10.4,-,N/A,,Overcast,310,2012-11-05 05:55:00
1:55 AM,37.8,27.3,66,29.95,10.0,WNW,5.8,-,N/A,,Overcast,300,2012-11-05 06:55:00
2:55 AM,37.6,26.8,65,29.95,10.0,NW,6.9,-,N/A,,Overcast,320,2012-11-05 07:55:00
3:20 AM,37.4,26.6,65,29.95,10.0,NW,8.1,-,N/A,,Overcast,320,2012-11-05 08:20:00
3:55 AM,37.6,25.5,62,29.96,10.0,NW,5.8,-,N/A,,Overcast,320,2012-11-05 08:55:00
4:55 AM,36.0,29.5,77,29.96,10.0,NE,3.5,-,N/A,,Overcast,50,2012-11-05 09:55:00
5:55 AM,36.3,27.5,70,29.96,10.0,Calm,Calm,-,N/A,,Overcast,0,2012-11-05 10:55:00
6:55 AM,36.5,26.4,67,29.98,10.0,ENE,4.6,-,N/A,,Overcast,60,2012-11-05 11:55:00
7:55 AM,36.7,26.1,65,30.00,10.0,NE,3.5,-,N/A,,Overcast,50,2012-11-05 12:55:00
8:55 AM,37.8,25.5,61,30.01,10.0,NNE,4.6,-,N/A,,Overcast,30,2012-11-05 13:55:00
9:55 AM,38.3,24.4,57,30.01,10.0,North,5.8,-,N/A,,Overcast,360,2012-11-05 14:55:00
10:55 AM,39.0,24.6,56,29.99,10.0,NW,8.1,-,N/A,,Overcast,320,2012-11-05 15:55:00
11:55 AM,39.2,25.0,57,29.99,10.0,North,10.4,-,N/A,,Overcast,350,2012-11-05 16:55:00
12:55 PM,41.4,23.4,49,29.98,10.0,WNW,10.4,-,N/A,,Mostly Cloudy,300,2012-11-05 17:55:00
1:55 PM,40.6,20.1,44,29.97,10.0,NW,8.1,-,N/A,,Mostly Cloudy,310,2012-11-05 18:55:00
2:55 PM,40.5,19.6,43,29.98,10.0,NW,9.2,-,N/A,,Mostly Cloudy,310,2012-11-05 19:55:00
3:55 PM,39.4,21.2,48,30.00,10.0,NW,10.4,-,N/A,,Mostly Cloudy,320,2012-11-05 20:55:00
4:55 PM,38.1,18.1,45,30.03,10.0,NW,12.7,-,N/A,,Mostly Cloudy,310,2012-11-05 21:55:00
5:55 PM,35.4,16.2,46,30.06,10.0,NW,10.4,-,N/A,,Mostly Cloudy,310,2012-11-05 22:55:00
6:55 PM,32.0,16.2,52,30.08,10.0,NW,6.9,-,N/A,,Scattered Clouds,310,2012-11-05 23:55:00
7:55 PM,31.5,16.0,53,30.10,10.0,NW,4.6,-,N/A,,Partly Cloudy,310,2012-11-06 00:55:00
8:55 PM,29.3,16.7,59,30.11,10.0,NW,5.8,-,N/A,,Clear,320,2012-11-06 01:55:00
9:55 PM,28.6,17.6,64,30.12,10.0,NW,4.6,-,N/A,,Clear,310,2012-11-06 02:55:00
10:55 PM,28.9,17.6,63,30.12,10.0,West,4.6,-,N/A,,Partly Cloudy,260,2012-11-06 03:55:00
11:55 PM,28.9,17.1,61,30.12,10.0,WNW,4.6,-,N/A,,Partly Cloudy,300,2012-11-06 04:55:00